QPF
0.03 0.03 0.04 0.04 0.04 0.05 0.06 0.07 0.05 0.04 0.04 0.06 0.07 0.08 0.08 0.09 0.11 0.16 0.19 0.14 0.12 0.12 0.11 0.11 0.11 0.14 0.13 0.11 0.08 0.05 0.04 0.04 0.03 0.03 0.03 0.03 0.03 0.02 0.02 0.02 0.01 0.01 0.01
0.03 0.04 0.03 0.03 0.04 0.04 0.06 0.07 0.06 0.07 0.06 0.06 0.05 0.05 0.06 0.07 0.10 0.17 0.22 0.20 0.14 0.12 0.13 0.12 0.14 0.16 0.16 0.12 0.08 0.05 0.05 0.04 0.04 0.03 0.04 0.04 0.03 0.02 0.03 0.02 0.02 0.01 0.01
0.04 0.05 0.04 0.02 0.04 0.05 0.07 0.08 0.09 0.09 0.10 0.09 0.07 0.06 0.06 0.07 0.09 0.14 0.18 0.19 0.15 0.14 0.17 0.15 0.14 0.15 0.18 0.14 0.10 0.07 0.06 0.04 0.03 0.04 0.04 0.04 0.03 0.03 0.03 0.03 0.02 0.02 0.02
0.03 0.05 0.07 0.02 0.03 0.04 0.06 0.08 0.12 0.12 0.12 0.12 0.10 0.08 0.06 0.07 0.11 0.15 0.18 0.18 0.17 0.18 0.22 0.16 0.13 0.13 0.16 0.17 0.13 0.10 0.08 0.05 0.03 0.03 0.03 0.03 0.02 0.02 0.02 0.03 0.03 0.03 0.03
0.05 0.04 0.04 0.04 0.03 0.05 0.07 0.06 0.13 0.12 0.13 0.11 0.09 0.08 0.05 0.08 0.18 0.16 0.18 0.17 0.19 0.19 0.21 0.18 0.15 0.13 0.13 0.17 0.14 0.11 0.09 0.07 0.04 0.03 0.03 0.02 0.03 0.02 0.02 0.02 0.02 0.03 0.04
0.08 0.07 0.09 0.07 0.04 0.06 0.09 0.07 0.11 0.11 0.12 0.10 0.09 0.07 0.07 0.09 0.19 0.18 0.16 0.16 0.19 0.21 0.21 0.21 0.20 0.18 0.15 0.15 0.14 0.11 0.09 0.07 0.05 0.04 0.03 0.03 0.03 0.03 0.02 0.02 0.02 0.03 0.03
0.11 0.09 0.12 0.12 0.06 0.06 0.10 0.10 0.08 0.10 0.11 0.10 0.10 0.09 0.10 0.11 0.13 0.13 0.13 0.14 0.16 0.18 0.20 0.19 0.21 0.22 0.20 0.16 0.15 0.13 0.11 0.10 0.08 0.06 0.05 0.05 0.04 0.04 0.04 0.03 0.03 0.03 0.03
0.11 0.11 0.14 0.14 0.08 0.07 0.09 0.13 0.11 0.09 0.08 0.09 0.09 0.10 0.12 0.12 0.14 0.12 0.11 0.12 0.13 0.13 0.14 0.14 0.16 0.17 0.16 0.14 0.12 0.12 0.12 0.12 0.10 0.09 0.07 0.05 0.05 0.05 0.05 0.05 0.05 0.05 0.05
0.09 0.11 0.13 0.13 0.09 0.07 0.10 0.12 0.15 0.12 0.07 0.07 0.06 0.09 0.10 0.09 0.11 0.12 0.11 0.10 0.10 0.10 0.09 0.09 0.09 0.10 0.10 0.10 0.09 0.09 0.11 0.12 0.12 0.10 0.07 0.05 0.05 0.05 0.06 0.06 0.06 0.05 0.05
0.05 0.07 0.10 0.10 0.08 0.08 0.10 0.11 0.13 0.16 0.12 0.09 0.07 0.07 0.08 0.07 0.07 0.09 0.10 0.08 0.07 0.07 0.07 0.06 0.06 0.06 0.06 0.06 0.05 0.05 0.06 0.06 0.07 0.07 0.08 0.08 0.07 0.07 0.07 0.07 0.06 0.05 0.04
0.04 0.04 0.05 0.06 0.07 0.09 0.09 0.11 0.14 0.17 0.16 0.13 0.11 0.09 0.09 0.08 0.07 0.07 0.08 0.08 0.07 0.06 0.06 0.05 0.05 0.05 0.05 0.05 0.04 0.04 0.04 0.04 0.04 0.04 0.03 0.04 0.05 0.05 0.05 0.08 0.11 0.11 0.09
0.03 0.03 0.04 0.04 0.05 0.07 0.08 0.10 0.12 0.14 0.15 0.14 0.13 0.12 0.12 0.11 0.11 0.09 0.07 0.07 0.06 0.05 0.05 0.05 0.04 0.06 0.07 0.06 0.04 0.04 0.04 0.03 0.02 0.02 0.02 0.02 0.03 0.03 0.04 0.04 0.05 0.07 0.09
0.02 0.03 0.03 0.03 0.03 0.05 0.05 0.07 0.10 0.10 0.12 0.13 0.12 0.13 0.14 0.11 0.11 0.10 0.09 0.07 0.06 0.04 0.05 0.05 0.03 0.04 0.06 0.05 0.06 0.05 0.05 0.03 0.02 0.02 0.02 0.02 0.02 0.05 0.07 0.04 0.03 0.03 0.04
0.02 0.03 0.03 0.02 0.03 0.03 0.03 0.04 0.06 0.07 0.09 0.10 0.10 0.11 0.13 0.11 0.10 0.10 0.09 0.07 0.06 0.05 0.05 0.05 0.03 0.03 0.04 0.05 0.05 0.06 0.06 0.04 0.02 0.01 0.01 0.00 0.01 0.02 0.03 0.02 0.02 0.02 0.02
0.03 0.03 0.03 0.02 0.03 0.03 0.04 0.06 0.06 0.06 0.07 0.08 0.07 0.08 0.09 0.09 0.09 0.09 0.09 0.08 0.06 0.05 0.04 0.04 0.04 0.04 0.03 0.04 0.05 0.05 0.06 0.05 0.03 0.01 0.01 0.00 0.01 0.01 0.01 0.01 0.01 0.02 0.02
0.03 0.03 0.03 0.03 0.04 0.04 0.04 0.05 0.04 0.05 0.06 0.06 0.06 0.06 0.06 0.07 0.09 0.09 0.08 0.08 0.07 0.06 0.04 0.02 0.03 0.02 0.02 0.02 0.03 0.06 0.07 0.05 0.04 0.02 0.01 0.00 0.00 0.00 0.01 0.01 0.02 0.01 0.01
0.03 0.03 0.03 0.03 0.03 0.03 0.03 0.03 0.03 0.03 0.03 0.04 0.04 0.04 0.04 0.05 0.09 0.11 0.10 0.09 0.07 0.06 0.04 0.02 0.01 0.02 0.02 0.02 0.02 0.05 0.07 0.07 0.04 0.03 0.02 0.01 0.00 0.00 0.00 0.00 0.01 0.02 0.02
0.03 0.02 0.03 0.04 0.03 0.03 0.03 0.03 0.03 0.02 0.02 0.02 0.02 0.03 0.04 0.04 0.06 0.09 0.09 0.07 0.07 0.06 0.05 0.03 0.03 0.02 0.03 0.03 0.03 0.03 0.05 0.07 0.07 0.04 0.03 0.02 0.01 0.01 0.00 0.00 0.01 0.01 0.01
0.03 0.02 0.03 0.03 0.03 0.03 0.03 0.02 0.02 0.02 0.02 0.02 0.03 0.03 0.04 0.04 0.06 0.08 0.07 0.07 0.06 0.05 0.04 0.04 0.03 0.03 0.04 0.04 0.04 0.03 0.03 0.05 0.06 0.06 0.05 0.03 0.02 0.02 0.01 0.01 0.00 0.00 0.00
0.01 0.01 0.04 0.04 0.03 0.03 0.02 0.02 0.03 0.03 0.02 0.03 0.03 0.02 0.02 0.03 0.05 0.07 0.05 0.05 0.06 0.06 0.05 0.04 0.03 0.04 0.05 0.06 0.07 0.05 0.05 0.04 0.05 0.06 0.06 0.05 0.03 0.03 0.02 0.02 0.01 0.01 0.01
0.01 0.01 0.02 0.02 0.03 0.04 0.03 0.02 0.03 0.02 0.02 0.03 0.02 0.02 0.02 0.02 0.03 0.04 0.04 0.05 0.06 0.06 0.05 0.05 0.04 0.03 0.05 0.07 0.08 0.08 0.06 0.05 0.04 0.05 0.06 0.06 0.05 0.04 0.03 0.02 0.02 0.02 0.02
0.01 0.01 0.01 0.01 0.01 0.01 0.03 0.04 0.03 0.03 0.02 0.02 0.02 0.02 0.02 0.02 0.02 0.03 0.03 0.04 0.05 0.05 0.05 0.06 0.04 0.04 0.05 0.06 0.07 0.06 0.07 0.07 0.07 0.06 0.06 0.07 0.05 0.05 0.04 0.03 0.02 0.02 0.02
0.01 0.01 0.01 0.01 0.01 0.01 0.01 0.02 0.03 0.04 0.04 0.03 0.02 0.02 0.03 0.02 0.02 0.02 0.02 0.03 0.03 0.04 0.06 0.06 0.06 0.06 0.06 0.06 0.07 0.06 0.07 0.07 0.08 0.06 0.06 0.07 0.07 0.05 0.04 0.03 0.03 0.02 0.02
0.02 0.01 0.01 0.01 0.01 0.01 0.01 0.01 0.02 0.03 0.04 0.04 0.03 0.02 0.03 0.02 0.02 0.02 0.02 0.03 0.03 0.03 0.04 0.03 0.05 0.07 0.06 0.06 0.07 0.09 0.08 0.07 0.06 0.06 0.06 0.06 0.06 0.06 0.05 0.04 0.03 0.03 0.02
0.02 0.02 0.01 0.02 0.02 0.02 0.01 0.02 0.02 0.03 0.03 0.03 0.03 0.02 0.03 0.02 0.02 0.02 0.02 0.04 0.05 0.04 0.03 0.04 0.05 0.05 0.07 0.07 0.06 0.07 0.06 0.06 0.05 0.06 0.07 0.06 0.05 0.06 0.07 0.06 0.05 0.04 0.03
0.03 0.03 0.02 0.02 0.01 0.01 0.02 0.02 0.03 0.03 0.03 0.03 0.03 0.03 0.03 0.02 0.02 0.02 0.02 0.04 0.04 0.04 0.03 0.03 0.03 0.04 0.05 0.05 0.05 0.04 0.05 0.06 0.06 0.06 0.06 0.06 0.06 0.06 0.07 0.07 0.07 0.06 0.05
MSLP
1008.45 1008.24 1008.10 1008.06 1008.14 1008.36 1008.70 1009.15 1009.67 1010.23 1010.80 1011.35 1011.87 1012.35 1012.78 1013.16 1013.51 1013.82 1014.10 1014.38 1014.65 1014.95 1015.29 1015.67 1016.11 1016.58 1017.06 1017.53 1017.96 1018.32 1018.61 1018.83 1019.01 1019.16 1019.31 1019.49 1019.70 1019.91 1020.12 1020.29 1020.40 1020.45 1020.44
1008.84 1008.59 1008.41 1008.33 1008.38 1008.59 1008.94 1009.41 1009.97 1010.58 1011.19 1011.78 1012.31 1012.78 1013.18 1013.53 1013.82 1014.08 1014.32 1014.57 1014.85 1015.17 1015.55 1015.99 1016.48 1016.99 1017.50 1017.97 1018.38 1018.72 1018.97 1019.16 1019.31 1019.45 1019.61 1019.79 1020.01 1020.24 1020.46 1020.64 1020.76 1020.80 1020.78
1009.24 1008.96 1008.75 1008.64 1008.67 1008.85 1009.19 1009.66 1010.23 1010.86 1011.49 1012.09 1012.64 1013.12 1013.52 1013.86 1014.13 1014.36 1014.59 1014.82 1015.10 1015.43 1015.82 1016.28 1016.79 1017.31 1017.83 1018.29 1018.69 1019.00 1019.24 1019.40 1019.54 1019.67 1019.82 1020.01 1020.24 1020.48 1020.72 1020.91 1021.04 1021.09 1021.08
1009.59 1009.31 1009.08 1008.96 1008.97 1009.13 1009.45 1009.90 1010.46 1011.07 1011.71 1012.33 1012.90 1013.40 1013.82 1014.17 1014.46 1014.69 1014.91 1015.14 1015.40 1015.71 1016.09 1016.52 1017.01 1017.52 1018.01 1018.47 1018.85 1019.16 1019.39 1019.55 1019.69 1019.82 1019.97 1020.16 1020.39 1020.63 1020.87 1021.07 1021.22 1021.29 1021.31
1009.87 1009.60 1009.39 1009.26 1009.26 1009.41 1009.70 1010.12 1010.64 1011.23 1011.86 1012.49 1013.08 1013.62 1014.09 1014.48 1014.80 1015.06 1015.29 1015.50 1015.73 1016.00 1016.32 1016.71 1017.14 1017.60 1018.06 1018.49 1018.88 1019.19 1019.44 1019.63 1019.78 1019.92 1020.08 1020.26 1020.48 1020.71 1020.93 1021.14 1021.29 1021.39 1021.43
1010.12 1009.87 1009.67 1009.55 1009.55 1009.68 1009.93 1010.31 1010.79 1011.34 1011.95 1012.58 1013.19 1013.78 1014.30 1014.76 1015.14 1015.44 1015.68 1015.88 1016.08 1016.28 1016.53 1016.82 1017.17 1017.57 1017.99 1018.41 1018.80 1019.14 1019.43 1019.67 1019.86 1020.03 1020.19 1020.37 1020.56 1020.75 1020.95 1021.14 1021.29 1021.40 1021.47
1010.36 1010.13 1009.95 1009.85 1009.84 1009.95 1010.16 1010.48 1010.91 1011.41 1011.98 1012.60 1013.23 1013.86 1014.45 1014.97 1015.42 1015.77 1016.04 1016.23 1016.39 1016.52 1016.68 1016.88 1017.14 1017.47 1017.85 1018.26 1018.67 1019.06 1019.41 1019.72 1019.97 1020.17 1020.35 1020.51 1020.67 1020.83 1020.98 1021.12 1021.25 1021.36 1021.44
1010.64 1010.42 1010.27 1010.17 1010.16 1010.24 1010.40 1010.66 1011.01 1011.44 1011.96 1012.55 1013.19 1013.84 1014.48 1015.07 1015.59 1016.00 1016.30 1016.51 1016.63 1016.71 1016.79 1016.90 1017.08 1017.35 1017.69 1018.10 1018.54 1018.99 1019.42 1019.80 1020.12 1020.37 1020.57 1020.72 1020.85 1020.95 1021.04 1021.13 1021.22 1021.31 1021.39
1010.98 1010.78 1010.64 1010.55 1010.52 1010.56 1010.67 1010.85 1011.11 1011.46 1011.90 1012.44 1013.05 1013.71 1014.39 1015.03 1015.61 1016.09 1016.43 1016.66 1016.78 1016.83 1016.86 1016.91 1017.03 1017.24 1017.55 1017.96 1018.44 1018.95 1019.45 1019.91 1020.30 1020.61 1020.83 1020.98 1021.08 1021.13 1021.16 1021.19 1021.23 1021.28 1021.34
1011.39 1011.21 1011.07 1010.99 1010.94 1010.94 1010.97 1011.07 1011.22 1011.47 1011.82 1012.27 1012.83 1013.47 1014.15 1014.83 1015.47 1016.00 1016.40 1016.67 1016.82 1016.88 1016.89 1016.91 1016.99 1017.17 1017.47 1017.88 1018.37 1018.92 1019.48 1020.01 1020.46 1020.82 1021.08 1021.24 1021.32 1021.34 1021.33 1021.31 1021.30 1021.30 1021.34
1011.85 1011.68 1011.56 1011.47 1011.40 1011.35 1011.32 1011.32 1011.37 1011.50 1011.73 1012.08 1012.55 1013.14 1013.80 1014.49 1015.16 1015.74 1016.21 1016.55 1016.75 1016.85 1016.89 1016.92 1016.99 1017.15 1017.43 1017.83 1018.32 1018.89 1019.47 1020.04 1020.54 1020.94 1021.24 1021.42 1021.51 1021.53 1021.50 1021.45 1021.41 1021.38 1021.38
1012.30 1012.16 1012.06 1011.97 1011.88 1011.79 1011.70 1011.61 1011.55 1011.55 1011.66 1011.89 1012.26 1012.76 1013.37 1014.04 1014.72 1015.35 1015.89 1016.30 1016.59 1016.76 1016.85 1016.92 1017.01 1017.16 1017.42 1017.79 1018.26 1018.80 1019.38 1019.95 1020.48 1020.91 1021.25 1021.48 1021.61 1021.65 1021.64 1021.59 1021.54 1021.49 1021.47
1012.71 1012.60 1012.52 1012.43 1012.34 1012.22 1012.08 1011.91 1011.76 1011.66 1011.64 1011.74 1011.99 1012.39 1012.92 1013.54 1014.21 1014.87 1015.46 1015.96 1016.34 1016.60 1016.77 1016.90 1017.02 1017.17 1017.41 1017.73 1018.15 1018.64 1019.18 1019.73 1020.25 1020.71 1021.09 1021.37 1021.56 1021.67 1021.70 1021.69 1021.66 1021.62 1021.59
1013.04 1012.96 1012.90 1012.83 1012.74 1012.61 1012.43 1012.22 1012.00 1011.80 1011.67 1011.66 1011.78 1012.07 1012.50 1013.05 1013.69 1014.35 1014.98 1015.55 1016.01 1016.38 1016.64 1016.83 1016.99 1017.16 1017.36 1017.63 1017.98 1018.40 1018.87 1019.37 1019.87 1020.34 1020.76 1021.10 1021.37 1021.56 1021.67 1021.73 1021.74 1021.73 1021.70
1013.27 1013.22 1013.18 1013.14 1013.06 1012.93 1012.75 1012.51 1012.25 1011.98 1011.77 1011.66 1011.67 1011.83 1012.16 1012.62 1013.19 1013.83 1014.48 1015.09 1015.63 1016.08 1016.43 1016.69 1016.90 1017.07 1017.26 1017.48 1017.75 1018.08 1018.48 1018.92 1019.39 1019.86 1020.30 1020.71 1021.05 1021.33 1021.53 1021.67 1021.75 1021.77 1021.77
1013.41 1013.38 1013.36 1013.34 1013.28 1013.17 1012.99 1012.76 1012.48 1012.19 1011.93 1011.73 1011.65 1011.71 1011.92 1012.28 1012.78 1013.36 1013.99 1014.62 1015.20 1015.71 1016.13 1016.46 1016.71 1016.91 1017.08 1017.26 1017.46 1017.72 1018.04 1018.42 1018.84 1019.30 1019.77 1020.22 1020.63 1020.99 1021.28 1021.50 1021.64 1021.72 1021.74
1013.50 1013.47 1013.46 1013.44 1013.40 1013.31 1013.16 1012.95 1012.69 1012.40 1012.11 1011.87 1011.72 1011.69 1011.80 1012.05 1012.45 1012.95 1013.53 1014.13 1014.72 1015.27 1015.73 1016.11 1016.41 1016.63 1016.81 1016.96 1017.13 1017.34 1017.59 1017.92 1018.30 1018.73 1019.20 1019.67 1020.13 1020.54 1020.90 1021.18 1021.39 1021.51 1021.57
1013.57 1013.52 1013.50 1013.48 1013.45 1013.38 1013.26 1013.08 1012.84 1012.57 1012.29 1012.03 1011.84 1011.74 1011.76 1011.91 1012.20 1012.60 1013.10 1013.65 1014.21 1014.75 1015.24 1015.65 1015.98 1016.24 1016.43 1016.60 1016.75 1016.93 1017.15 1017.43 1017.78 1018.18 1018.62 1019.09 1019.55 1019.99 1020.37 1020.69 1020.94 1021.10 1021.20
1013.66 1013.57 1013.52 1013.48 1013.44 1013.38 1013.27 1013.13 1012.93 1012.69 1012.43 1012.18 1011.97 1011.82 1011.77 1011.83 1012.01 1012.31 1012.70 1013.17 1013.67 1014.18 1014.66 1015.08 1015.44 1015.73 1015.96 1016.15 1016.32 1016.50 1016.70 1016.95 1017.26 1017.62 1018.02 1018.45 1018.88 1019.30 1019.68 1020.00 1020.27 1020.46 1020.59
1013.77 1013.64 1013.54 1013.47 1013.40 1013.33 1013.23 1013.10 1012.94 1012.74 1012.51 1012.28 1012.07 1011.90 1011.79 1011.78 1011.86 1012.06 1012.34 1012.71 1013.13 1013.58 1014.02 1014.44 1014.81 1015.13 1015.39 1015.62 1015.82 1016.01 1016.21 1016.44 1016.71 1017.02 1017.37 1017.73 1018.10 1018.46 1018.80 1019.10 1019.36 1019.58 1019.76
1013.91 1013.73 1013.58 1013.46 1013.36 1013.26 1013.15 1013.03 1012.88 1012.71 1012.52 1012.31 1012.12 1011.94 1011.81 1011.74 1011.75 1011.85 1012.03 1012.30 1012.62 1012.99 1013.38 1013.76 1014.13 1014.46 1014.75 1015.01 1015.24 1015.45 1015.66 1015.88 1016.11 1016.36 1016.63 1016.91 1017.20 1017.48 1017.76 1018.02 1018.26 1018.49 1018.71
1014.06 1013.84 1013.64 1013.47 1013.32 1013.18 1013.04 1012.91 1012.77 1012.62 1012.45 1012.28 1012.10 1011.94 1011.80 1011.70 1011.66 1011.68 1011.78 1011.94 1012.17 1012.45 1012.77 1013.10 1013.44 1013.76 1014.07 1014.34 1014.59 1014.82 1015.03 1015.23 1015.43 1015.62 1015.82 1016.01 1016.20 1016.40 1016.60 1016.80 1017.02 1017.26 1017.51
1014.21 1013.96 1013.72 1013.51 1013.31 1013.12 1012.95 1012.79 1012.64 1012.50 1012.35 1012.20 1012.05 1011.91 1011.78 1011.67 1011.60 1011.57 1011.59 1011.67 1011.81 1012.01 1012.24 1012.51 1012.79 1013.09 1013.38 1013.65 1013.91 1014.14 1014.34 1014.53 1014.69 1014.83 1014.95 1015.07 1015.17 1015.28 1015.41 1015.56 1015.75 1015.98 1016.27
1014.34 1014.08 1013.83 1013.58 1013.34 1013.12 1012.91 1012.72 1012.55 1012.39 1012.25 1012.12 1011.99 1011.87 1011.75 1011.65 1011.56 1011.50 1011.48 1011.49 1011.56 1011.66 1011.82 1012.01 1012.23 1012.47 1012.73 1012.98 1013.22 1013.44 1013.64 1013.81 1013.94 1014.04 1014.11 1014.16 1014.20 1014.24 1014.31 1014.41 1014.57 1014.79 1015.08
1014.46 1014.20 1013.95 1013.69 1013.44 1013.19 1012.95 1012.73 1012.53 1012.36 1012.21 1012.07 1011.95 1011.84 1011.74 1011.64 1011.55 1011.47 1011.41 1011.38 1011.38 1011.41 1011.49 1011.61 1011.76 1011.95 1012.15 1012.37 1012.58 1012.79 1012.97 1013.12 1013.24 1013.32 1013.36 1013.37 1013.37 1013.37 1013.39 1013.45 1013.58 1013.77 1014.05
1014.55 1014.33 1014.10 1013.86 1013.61 1013.35 1013.10 1012.85 1012.63 1012.43 1012.25 1012.10 1011.96 1011.84 1011.74 1011.63 1011.53 1011.43 1011.35 1011.28 1011.23 1011.21 1011.22 1011.27 1011.36 1011.49 1011.64 1011.82 1012.01 1012.20 1012.38 1012.53 1012.65 1012.72 1012.76 1012.77 1012.75 1012.73 1012.72 1012.75 1012.83 1012.99 1013.22
Thickness
5748 5747 5745 5745 5747 5747 5746 5745 5745 5744 5744 5744 5744 5744 5744 5744 5744 5744 5743 5740 5739 5737 5737 5736 5735 5734 5733 5731 5730 5730 5728 5727 5726 5724 5723 5721 5720 5719 5718 5717 5716 5715 5714
5745 5744 5744 5743 5744 5744 5744 5743 5743 5742 5743 5742 5742 5742 5742 5742 5741 5741 5742 5740 5737 5737 5736 5735 5734 5733 5732 5730 5729 5728 5727 5726 5724 5723 5721 5720 5719 5718 5717 5717 5716 5715 5714
5742 5742 5742 5742 5742 5742 5740 5741 5741 5741 5741 5740 5739 5740 5740 5739 5739 5739 5740 5740 5739 5737 5735 5734 5733 5732 5731 5730 5728 5727 5726 5724 5723 5721 5720 5719 5718 5717 5716 5716 5715 5714 5713
5739 5739 5741 5742 5740 5740 5740 5740 5740 5740 5739 5738 5737 5738 5737 5736 5736 5737 5738 5739 5740 5739 5735 5733 5732 5731 5730 5728 5727 5726 5724 5723 5721 5720 5718 5717 5717 5716 5715 5715 5714 5713 5713
5738 5738 5739 5738 5738 5739 5739 5739 5739 5738 5736 5735 5735 5735 5736 5735 5735 5735 5736 5737 5738 5738 5736 5731 5730 5730 5728 5727 5726 5725 5723 5721 5720 5719 5717 5716 5715 5715 5714 5714 5713 5712 5712
5736 5736 5737 5735 5736 5736 5736 5736 5735 5735 5735 5733 5734 5733 5733 5733 5733 5733 5734 5735 5735 5734 5734 5732 5730 5728 5727 5725 5724 5723 5721 5720 5719 5717 5716 5715 5714 5713 5713 5712 5712 5711 5711
5733 5733 5735 5733 5734 5734 5733 5733 5733 5733 5732 5733 5731 5728 5729 5731 5730 5730 5731 5733 5733 5732 5731 5730 5729 5728 5726 5724 5722 5721 5719 5718 5717 5716 5714 5713 5713 5712 5711 5711 5710 5710 5710
5731 5732 5730 5731 5731 5731 5730 5730 5729 5730 5731 5731 5729 5726 5723 5724 5724 5728 5728 5729 5729 5729 5729 5728 5727 5725 5725 5724 5721 5719 5717 5716 5715 5714 5713 5712 5711 5710 5710 5709 5709 5708 5708
5727 5727 5727 5727 5728 5729 5728 5727 5727 5726 5726 5728 5729 5726 5721 5719 5721 5723 5724 5725 5725 5726 5726 5726 5724 5722 5722 5721 5719 5717 5715 5714 5713 5712 5711 5710 5709 5708 5708 5707 5707 5707 5707
5724 5724 5724 5723 5724 5726 5725 5725 5726 5725 5724 5725 5726 5725 5725 5725 5720 5717 5718 5721 5722 5721 5722 5723 5722 5720 5719 5718 5717 5715 5713 5712 5711 5710 5709 5708 5707 5706 5706 5706 5706 5705 5706
5721 5721 5721 5720 5720 5722 5722 5722 5722 5722 5723 5723 5723 5723 5721 5721 5722 5718 5714 5715 5718 5720 5720 5720 5719 5718 5717 5716 5715 5713 5711 5709 5708 5707 5706 5706 5705 5704 5704 5704 5704 5704 5704
5719 5718 5718 5717 5717 5718 5718 5718 5718 5719 5719 5720 5721 5721 5720 5719 5717 5717 5714 5712 5713 5716 5717 5718 5718 5717 5716 5716 5714 5712 5709 5707 5706 5705 5704 5704 5703 5703 5702 5702 5702 5702 5702
5716 5714 5715 5713 5713 5713 5714 5715 5714 5715 5715 5715 5715 5717 5718 5718 5718 5716 5714 5711 5711 5713 5714 5715 5716 5716 5715 5714 5712 5709 5707 5705 5704 5703 5702 5701 5701 5701 5700 5700 5700 5700 5700
5713 5711 5711 5710 5710 5710 5711 5711 5712 5711 5710 5710 5711 5712 5713 5715 5715 5714 5713 5710 5707 5708 5709 5710 5714 5713 5713 5712 5710 5707 5706 5703 5702 5701 5700 5699 5698 5698 5698 5698 5698 5697 5697
5709 5708 5707 5706 5706 5706 5706 5707 5707 5706 5706 5707 5708 5708 5709 5711 5711 5711 5711 5711 5707 5703 5704 5707 5709 5710 5709 5708 5706 5705 5704 5701 5700 5698 5697 5696 5696 5695 5695 5695 5695 5695 5694
5703 5703 5703 5702 5702 5702 5702 5702 5703 5702 5702 5702 5703 5703 5704 5708 5707 5708 5708 5709 5708 5706 5704 5707 5707 5708 5707 5707 5703 5703 5702 5699 5697 5696 5695 5694 5693 5692 5692 5692 5691 5691 5691
5698 5698 5698 5698 5699 5698 5698 5698 5698 5698 5698 5698 5699 5700 5700 5702 5703 5704 5704 5704 5704 5703 5700 5704 5706 5704 5702 5701 5701 5700 5700 5698 5697 5694 5692 5691 5690 5690 5689 5689 5689 5688 5688
5692 5693 5694 5694 5695 5694 5694 5694 5694 5695 5694 5695 5695 5696 5696 5698 5697 5699 5699 5699 5699 5699 5697 5694 5698 5699 5697 5697 5697 5696 5697 5697 5695 5692 5690 5689 5688 5687 5686 5685 5685 5685 5685
5687 5688 5689 5689 5690 5690 5690 5690 5690 5691 5691 5691 5692 5692 5692 5692 5692 5694 5694 5695 5695 5696 5694 5693 5693 5694 5694 5694 5692 5692 5693 5692 5692 5691 5688 5686 5685 5684 5683 5683 5682 5681 5681
5681 5682 5684 5685 5685 5685 5686 5686 5686 5687 5687 5688 5688 5688 5689 5689 5689 5690 5690 5690 5690 5689 5689 5689 5690 5690 5689 5689 5688 5687 5687 5688 5688 5689 5687 5685 5683 5681 5681 5680 5679 5678 5678
5676 5677 5678 5679 5680 5680 5680 5680 5681 5683 5682 5683 5684 5685 5685 5685 5684 5685 5687 5686 5685 5685 5685 5685 5685 5685 5685 5683 5683 5684 5682 5683 5683 5684 5683 5683 5682 5681 5679 5677 5676 5675 5674
5670 5671 5672 5673 5674 5675 5672 5671 5672 5676 5677 5678 5678 5680 5681 5681 5679 5678 5678 5678 5678 5679 5679 5679 5680 5680 5679 5680 5679 5678 5677 5676 5675 5679 5677 5678 5679 5679 5678 5677 5675 5672 5671
5665 5665 5666 5667 5668 5667 5665 5665 5665 5669 5672 5673 5673 5674 5677 5678 5676 5676 5674 5672 5673 5672 5672 5673 5675 5675 5675 5676 5674 5672 5671 5670 5670 5673 5671 5671 5674 5674 5675 5674 5671 5669 5667
5660 5660 5661 5662 5662 5661 5659 5659 5659 5663 5666 5667 5667 5668 5669 5669 5670 5668 5670 5670 5670 5670 5669 5669 5670 5671 5672 5671 5669 5668 5666 5665 5665 5667 5666 5665 5668 5669 5671 5670 5667 5665 5663
5655 5656 5656 5657 5656 5655 5652 5652 5652 5657 5660 5661 5662 5663 5663 5663 5660 5659 5661 5663 5664 5665 5664 5664 5663 5664 5663 5662 5661 5661 5661 5660 5660 5663 5663 5661 5663 5663 5665 5666 5663 5660 5658
5650 5651 5651 5651 5650 5650 5646 5646 5645 5653 5654 5656 5656 5657 5655 5654 5652 5651 5653 5655 5656 5658 5659 5659 5658 5658 5658 5657 5655 5655 5657 5655 5656 5656 5659 5657 5657 5657 5657 5660 5659 5657 5654